Location: Mt. Bigelow
(32.4165°N, 110.7345°W)
Time: 13:01:24
(UTC-07:00)

Hubble Space Telescope - Visible Passes

Search period start: 22 November 2017 00:00
Search period end: 02 December 2017 00:00
Orbit: 537 x 541 km, 28.5° (Epoch: 22 November)

Date Brightness Start Highest point End Pass type
(mag) Time Alt. Az. Time Alt. Az. Time Alt. Az.
22 Nov 1.4 05:01:41 47° SSE 05:01:41 47° SSE 05:05:19 10° ESE visible
23 Nov 1.9 04:52:07 38° SE 04:52:07 38° SE 04:55:04 10° ESE visible
23 Nov 2.2 06:28:25 10° WSW 06:32:01 30° SSW 06:35:38 10° SE visible
24 Nov 2.5 04:42:32 29° SE 04:42:32 29° SE 04:44:49 10° ESE visible
24 Nov 2.4 06:18:20 10° WSW 06:21:45 25° SSW 06:25:10 10° SE visible
25 Nov 3.1 04:32:57 21° SE 04:32:57 21° SE 04:34:32 10° ESE visible
25 Nov 2.6 06:08:19 10° WSW 06:11:28 21° SSW 06:14:37 10° SSE visible
26 Nov 3.6 04:23:23 15° SE 04:23:23 15° SE 04:24:13 10° ESE visible
26 Nov 2.8 05:58:45 11° WSW 06:01:10 18° SSW 06:03:56 10° SSE visible
27 Nov 4.0 04:13:50 10° SE 04:13:50 10° SE 04:13:52 10° SE visible
27 Nov 2.9 05:49:12 12° SW 05:50:51 14° SSW 05:53:05 10° S visible
28 Nov 3.1 05:39:40 11° SW 05:40:31 11° SSW 05:41:45 10° S visible
